| time (UTC) | temp F | wind direction | speed MPH | gust MPH | rain 1hr in | rain 24hr in | rain mn in | humidity % | barometer mb |
| 20260904232236 | 84 | 344 | 2.0 | 5.0 | 0.00 | 0.00 | 0.00 | 66 | 1012.2 |
| 20260904231735 | 84 | 339 | 2.0 | 5.0 | 0.00 | 0.00 | 0.00 | 66 | 1012.1 |
| 20260904231709 | 84 | 325 | 3.0 | 7.0 | 0.00 | 0.00 | 0.00 | 66 | 1012.1 |
| 20260904230733 | 85 | 349 | 2.0 | 7.0 | 0.00 | 0.00 | 0.00 | 66 | 1012.2 |
| 20260904230232 | 85 | 296 | 1.0 | 6.0 | 0.00 | 0.00 | 0.00 | 66 | 1012.1 |
| 20260904225732 | 85 | 329 | 1.0 | 6.0 | 0.00 | 0.00 | 0.00 | 67 | 1012.0 |
| 20260904225233 | 84 | 0 | 1.0 | 3.0 | 0.00 | 0.00 | 0.00 | 67 | 1012.0 |
| 20260904224955 | 84 | 88 | 2.0 | 5.0 | 0.00 | 0.00 | 0.00 | 67 | 1012.0 |
| 20260904224232 | 84 | 5 | 2.0 | 5.0 | 0.00 | 0.00 | 0.00 | 67 | 1011.9 |
| 20260904223732 | 84 | 338 | 2.0 | 6.0 | 0.00 | 0.00 | 0.00 | 68 | 1011.9 |
| 20260904223233 | 84 | 330 | 3.0 | 9.0 | 0.00 | 0.00 | 0.00 | 68 | 1011.9 |
| 20260904222732 | 84 | 309 | 3.0 | 9.0 | 0.00 | 0.00 | 0.00 | 68 | 1011.8 |
| 20260904222453 | 85 | 298 | 3.0 | 8.0 | 0.00 | 0.00 | 0.00 | 68 | 1011.8 |
| 20260904221733 | 85 | 355 | 2.0 | 6.0 | 0.00 | 0.00 | 0.00 | 68 | 1011.7 |
| 20260904221232 | 85 | 5 | 2.0 | 6.0 | 0.00 | 0.00 | 0.00 | 69 | 1011.7 |
| 20260904220733 | 85 | 344 | 2.0 | 6.0 | 0.00 | 0.00 | 0.00 | 69 | 1011.6 |
| 20260904220231 | 85 | 344 | 2.0 | 6.0 | 0.00 | 0.00 | 0.00 | 69 | 1011.5 |
| 20260904215728 | 85 | 24 | 2.0 | 7.0 | 0.00 | 0.00 | 0.00 | 69 | 1011.4 |
| 20260904215226 | 85 | 340 | 2.0 | 7.0 | 0.00 | 0.00 | 0.00 | 71 | 1011.4 |
| 20260904214724 | 85 | 126 | 2.0 | 7.0 | 0.00 | 0.00 | 0.00 | 71 | 1011.4 |
| 20260904214225 | 85 | 335 | 2.0 | 7.0 | 0.00 | 0.00 | 0.00 | 71 | 1011.4 |
| 20260904214042 | 85 | 350 | 2.0 | 8.0 | 0.00 | 0.00 | 0.00 | 70 | 1011.4 |
| 20260904213940 | 85 | 323 | 3.0 | 8.0 | 0.00 | 0.00 | 0.00 | 70 | 1011.4 |
| 20260904212948 | 85 | 335 | 2.0 | 8.0 | 0.00 | 0.00 | 0.00 | 70 | 1011.5 |
| 20260904212220 | 85 | 321 | 2.0 | 8.0 | 0.00 | 0.00 | 0.00 | 70 | 1011.4 |
| 20260904211717 | 85 | 313 | 3.0 | 5.0 | 0.00 | 0.00 | 0.00 | 70 | 1011.5 |
| 20260904211219 | 85 | 350 | 2.0 | 4.0 | 0.00 | 0.00 | 0.00 | 71 | 1011.6 |
| 20260904210718 | 85 | 322 | 2.0 | 5.0 | 0.00 | 0.00 | 0.00 | 72 | 1011.5 |
| 20260904210216 | 84 | 318 | 2.0 | 6.0 | 0.00 | 0.00 | 0.00 | 71 | 1011.6 |
| 20260904205716 | 84 | 306 | 2.0 | 6.0 | 0.00 | 0.00 | 0.00 | 71 | 1011.6 |
| 20260904205438 | 84 | 309 | 2.0 | 5.0 | 0.00 | 0.00 | 0.00 | 71 | 1011.6 |
| 20260904204714 | 84 | 90 | 2.0 | 5.0 | 0.00 | 0.00 | 0.00 | 71 | 1011.6 |
| 20260904204434 | 84 | 327 | 2.0 | 5.0 | 0.00 | 0.00 | 0.00 | 71 | 1011.6 |
| 20260904203715 | 84 | 5 | 2.0 | 7.0 | 0.00 | 0.00 | 0.00 | 72 | 1011.5 |
| 20260904203214 | 84 | 302 | 3.0 | 7.0 | 0.00 | 0.00 | 0.00 | 72 | 1011.6 |
| 20260904202728 | 84 | 11 | 3.0 | 6.0 | 0.00 | 0.00 | 0.00 | 72 | 1011.5 |
| 20260904202214 | 84 | 344 | 2.0 | 7.0 | 0.00 | 0.00 | 0.00 | 72 | 1011.6 |
| 20260904201711 | 84 | 338 | 2.0 | 7.0 | 0.00 | 0.00 | 0.00 | 72 | 1011.5 |
| 20260904201204 | 84 | 331 | 2.0 | 7.0 | 0.00 | 0.00 | 0.00 | 73 | 1011.6 |
| 20260904200935 | 83 | 75 | 2.0 | 6.0 | 0.00 | 0.00 | 0.00 | 74 | 1011.6 |
| 20260904200205 | 83 | 75 | 2.0 | 8.0 | 0.00 | 0.00 | 0.00 | 74 | 1011.6 |
| 20260904195703 | 83 | 289 | 2.0 | 8.0 | 0.00 | 0.00 | 0.00 | 74 | 1011.6 |
| 20260904195206 | 83 | 32 | 2.0 | 7.0 | 0.00 | 0.00 | 0.00 | 74 | 1011.7 |
| 20260904194704 | 83 | 32 | 3.0 | 7.0 | 0.00 | 0.00 | 0.00 | 74 | 1011.7 |
| 20260904194205 | 83 | 319 | 3.0 | 7.0 | 0.00 | 0.00 | 0.00 | 74 | 1011.7 |
| 20260904193703 | 83 | 321 | 2.0 | 6.0 | 0.00 | 0.00 | 0.00 | 75 | 1011.7 |
| 20260904193206 | 83 | 315 | 2.0 | 6.0 | 0.00 | 0.00 | 0.00 | 74 | 1011.7 |
| 20260904192705 | 83 | 349 | 2.0 | 6.0 | 0.00 | 0.00 | 0.00 | 74 | 1011.7 |
| 20260904192205 | 82 | 49 | 3.0 | 8.0 | 0.00 | 0.00 | 0.00 | 76 | 1011.8 |
| 20260904191704 | 83 | 315 | 2.0 | 8.0 | 0.00 | 0.00 | 0.00 | 75 | 1011.8 |
| 20260904191204 | 82 | 10 | 2.0 | 9.0 | 0.00 | 0.00 | 0.00 | 76 | 1011.8 |
| 20260904190706 | 82 | 88 | 2.0 | 9.0 | 0.00 | 0.00 | 0.00 | 75 | 1011.8 |
| 20260904190203 | 83 | 313 | 2.0 | 8.0 | 0.00 | 0.00 | 0.00 | 76 | 1011.8 |
| 20260904185702 | 82 | 300 | 3.0 | 8.0 | 0.00 | 0.00 | 0.00 | 77 | 1011.8 |
| 20260904185202 | 82 | 347 | 3.0 | 8.0 | 0.00 | 0.00 | 0.00 | 78 | 1011.7 |
| 20260904185148 | 81 | 355 | 3.0 | 6.0 | 0.00 | 0.00 | 0.00 | 78 | 1011.7 |
| 20260904184201 | 81 | 309 | 2.0 | 6.0 | 0.00 | 0.00 | 0.00 | 79 | 1011.7 |
| 20260904183700 | 81 | 298 | 3.0 | 7.0 | 0.00 | 0.00 | 0.00 | 80 | 1011.8 |
| 20260904183201 | 80 | 15 | 3.0 | 8.0 | 0.00 | 0.00 | 0.00 | 80 | 1011.8 |
| 20260904182700 | 80 | 317 | 3.0 | 8.0 | 0.00 | 0.00 | 0.00 | 81 | 1011.8 |
| 20260904182159 | 80 | 321 | 3.0 | 8.0 | 0.00 | 0.00 | 0.00 | 81 | 1011.7 |
| 20260904181700 | 80 | 330 | 3.0 | 8.0 | 0.00 | 0.00 | 0.00 | 82 | 1011.7 |
| 20260904181200 | 80 | 339 | 3.0 | 6.0 | 0.00 | 0.00 | 0.00 | 82 | 1011.8 |
| 20260904180700 | 80 | 348 | 3.0 | 7.0 | 0.00 | 0.00 | 0.00 | 82 | 1011.8 |
| 20260904180200 | 80 | 313 | 3.0 | 8.0 | 0.00 | 0.00 | 0.00 | 83 | 1011.7 |
| 20260904180146 | 79 | 315 | 3.0 | 8.0 | 0.00 | 0.00 | 0.00 | 83 | 1011.7 |
| 20260904175200 | 79 | 327 | 3.0 | 8.0 | 0.00 | 0.00 | 0.00 | 83 | 1011.7 |
| 20260904174659 | 79 | 315 | 3.0 | 8.0 | 0.00 | 0.00 | 0.00 | 83 | 1011.7 |
| 20260904174200 | 80 | 5 | 3.0 | 7.0 | 0.00 | 0.00 | 0.00 | 83 | 1011.7 |
| 20260904173932 | 79 | 327 | 4.0 | 10.0 | 0.00 | 0.00 | 0.00 | 83 | 1011.6 |
| 20260904173200 | 80 | 338 | 3.0 | 10.0 | 0.00 | 0.00 | 0.00 | 83 | 1011.6 |
| 20260904172702 | 80 | 351 | 2.0 | 6.0 | 0.00 | 0.00 | 0.00 | 84 | 1011.5 |
| 20260904172203 | 80 | 320 | 2.0 | 6.0 | 0.00 | 0.00 | 0.00 | 84 | 1011.5 |
| 20260904171926 | 80 | 24 | 2.0 | 6.0 | 0.00 | 0.00 | 0.00 | 84 | 1011.5 |
| 20260904171200 | 80 | 324 | 2.0 | 5.0 | 0.00 | 0.00 | 0.00 | 85 | 1011.4 |
| 20260904170700 | 79 | 314 | 2.0 | 6.0 | 0.00 | 0.00 | 0.00 | 84 | 1011.4 |
| 20260904170201 | 80 | 342 | 2.0 | 6.0 | 0.00 | 0.00 | 0.00 | 84 | 1011.5 |
| 20260904165700 | 80 | 333 | 2.0 | 6.0 | 0.00 | 0.00 | 0.00 | 84 | 1011.6 |
| 20260904165203 | 80 | 350 | 2.0 | 6.0 | 0.00 | 0.00 | 0.00 | 84 | 1011.4 |
| 20260904164700 | 80 | 346 | 2.0 | 5.0 | 0.00 | 0.00 | 0.00 | 85 | 1011.4 |
| 20260904164201 | 79 | 342 | 2.0 | 5.0 | 0.00 | 0.00 | 0.00 | 85 | 1011.3 |
| 20260904163701 | 79 | 321 | 2.0 | 5.0 | 0.00 | 0.00 | 0.00 | 85 | 1011.3 |
| 20260904163158 | 79 | 340 | 2.0 | 5.0 | 0.00 | 0.00 | 0.00 | 85 | 1011.2 |
| 20260904162658 | 79 | 334 | 2.0 | 8.0 | 0.00 | 0.00 | 0.00 | 85 | 1011.2 |
| 20260904162158 | 79 | 327 | 2.0 | 8.0 | 0.00 | 0.00 | 0.00 | 84 | 1011.3 |
| 20260904161659 | 80 | 19 | 1.0 | 5.0 | 0.00 | 0.00 | 0.00 | 84 | 1011.2 |
| 20260904161159 | 80 | 26 | 1.0 | 5.0 | 0.00 | 0.00 | 0.00 | 84 | 1011.1 |
| 20260904160810 | 81 | 339 | 3.0 | 6.0 | 0.00 | 0.00 | 0.00 | 83 | 1011.0 |
| 20260904160716 | 80 | 344 | 3.0 | 6.0 | 0.00 | 0.00 | 0.00 | 83 | 1011.0 |
| 20260904160708 | 80 | 339 | 2.0 | 5.0 | 0.00 | 0.00 | 0.00 | 84 | 1011.0 |
| 20260904155157 | 81 | 333 | 2.0 | 5.0 | 0.00 | 0.00 | 0.00 | 83 | 1010.9 |
| 20260904154659 | 81 | 313 | 2.0 | 5.0 | 0.00 | 0.00 | 0.00 | 83 | 1010.9 |
| 20260904154159 | 81 | 349 | 2.0 | 6.0 | 0.00 | 0.00 | 0.00 | 83 | 1010.8 |
| 20260904153659 | 82 | 345 | 2.0 | 6.0 | 0.00 | 0.00 | 0.00 | 84 | 1010.8 |
| 20260904153158 | 81 | 22 | 2.0 | 5.0 | 0.00 | 0.00 | 0.00 | 84 | 1010.6 |
| 20260904152658 | 81 | 26 | 2.0 | 4.0 | 0.00 | 0.00 | 0.00 | 84 | 1010.5 |
| 20260904152159 | 81 | 338 | 1.0 | 4.0 | 0.00 | 0.00 | 0.00 | 83 | 1010.5 |
| 20260904151659 | 81 | 250 | 0.0 | 2.0 | 0.00 | 0.00 | 0.00 | 84 | 1010.4 |
| 20260904151157 | 80 | 0 | 1.0 | 3.0 | 0.00 | 0.00 | 0.00 | 85 | 1010.3 |
| 20260904150658 | 80 | 5 | 1.0 | 3.0 | 0.00 | 0.00 | 0.00 | 86 | 1010.2 |
| 20260904150419 | 79 | 350 | 1.0 | 3.0 | 0.00 | 0.00 | 0.00 | 87 | 1010.2 |
| 20260904150138 | 79 | 350 | 1.0 | 3.0 | 0.00 | 0.00 | 0.00 | 87 | 1010.2 |
| 20260904145158 | 78 | 0 | 1.0 | 3.0 | 0.00 | 0.00 | 0.00 | 88 | 1009.9 |
| 20260904144919 | 78 | 67 | 0.0 | 2.0 | 0.00 | 0.00 | 0.00 | 89 | 1009.8 |
| 20260904144813 | 77 | 69 | 1.0 | 7.0 | 0.00 | 0.00 | 0.00 | 90 | 1009.9 |
| 20260904143659 | 77 | 72 | 2.0 | 7.0 | 0.00 | 0.00 | 0.00 | 90 | 1009.8 |
| 20260904143158 | 77 | 96 | 1.0 | 6.0 | 0.00 | 0.00 | 0.00 | 90 | 1009.8 |
| 20260904142658 | 77 | 107 | 1.0 | 2.0 | 0.00 | 0.00 | 0.00 | 92 | 1009.9 |
| 20260904142157 | 76 | 333 | 1.0 | 4.0 | 0.00 | 0.00 | 0.00 | 92 | 1010.0 |
| 20260904141923 | 76 | 333 | 2.0 | 4.0 | 0.00 | 0.00 | 0.00 | 94 | 1010.0 |
| 20260904141158 | 75 | 325 | 1.0 | 4.0 | 0.00 | 0.00 | 0.00 | 94 | 1010.0 |
| 20260904140659 | 75 | 338 | 0.0 | 3.0 | 0.00 | 0.00 | 0.00 | 95 | 1009.9 |
| 20260904140421 | 74 | 103 | 1.0 | 3.0 | 0.00 | 0.00 | 0.00 | 95 | 1010.0 |
| 20260904135656 | 74 | 46 | 0.0 | 3.0 | 0.00 | 0.00 | 0.00 | 95 | 1010.0 |
| 20260904135157 | 74 | 329 | 0.0 | 1.0 | 0.00 | 0.00 | 0.00 | 95 | 1010.2 |
| 20260904135143 | 74 | 329 | 1.0 | 3.0 | 0.00 | 0.00 | 0.00 | 95 | 1010.2 |
| 20260904134155 | 74 | 325 | 1.0 | 3.0 | 0.00 | 0.00 | 0.00 | 95 | 1010.2 |
| 20260904133652 | 74 | 108 | 1.0 | 3.0 | 0.00 | 0.00 | 0.00 | 95 | 1010.0 |
| 20260904133154 | 74 | 327 | 1.0 | 4.0 | 0.00 | 0.00 | 0.00 | 95 | 1010.2 |
| 20260904132652 | 74 | 327 | 1.0 | 4.0 | 0.00 | 0.00 | 0.00 | 95 | 1010.0 |
| 20260904132639 | 74 | 324 | 1.0 | 3.0 | 0.00 | 0.00 | 0.00 | 95 | 1009.9 |
| 20260904131650 | 74 | 335 | 1.0 | 3.0 | 0.00 | 0.00 | 0.00 | 95 | 1009.9 |
| 20260904131145 | 74 | 341 | 0.0 | 3.0 | 0.00 | 0.00 | 0.00 | 95 | 1009.9 |
| 20260904130639 | 73 | 17 | 0.0 | 3.0 | 0.00 | 0.00 | 0.00 | 95 | 1009.8 |
| 20260904130137 | 73 | 16 | 0.0 | 3.0 | 0.00 | 0.00 | 0.00 | 95 | 1009.8 |
| 20260904125636 | 73 | 64 | 0.0 | 2.0 | 0.00 | 0.00 | 0.00 | 95 | 1009.7 |
| 20260904125135 | 73 | 64 | 0.0 | 2.0 | 0.00 | 0.00 | 0.00 | 95 | 1009.7 |
| 20260904124902 | 73 | 64 | 0.0 | 2.0 | 0.00 | 0.00 | 0.00 | 95 | 1009.6 |
| 20260904124136 | 73 | 71 | 0.0 | 0.0 | 0.00 | 0.00 | 0.00 | 95 | 1009.5 |
| 20260904123637 | 73 | 71 | 1.0 | 2.0 | 0.00 | 0.00 | 0.00 | 95 | 1009.4 |
| 20260904123135 | 73 | 71 | 1.0 | 3.0 | 0.00 | 0.00 | 0.00 | 95 | 1009.3 |
| 20260904122635 | 73 | 91 | 1.0 | 3.0 | 0.00 | 0.00 | 0.00 | 95 | 1009.2 |
| 20260904122136 | 73 | 78 | 1.0 | 3.0 | 0.00 | 0.00 | 0.00 | 95 | 1009.3 |
| 20260904121636 | 73 | 77 | 0.0 | 1.0 | 0.00 | 0.00 | 0.00 | 95 | 1009.3 |
| 20260904121134 | 73 | 78 | 0.0 | 2.0 | 0.00 | 0.00 | 0.00 | 95 | 1009.3 |
| 20260904120634 | 73 | 78 | 0.0 | 2.0 | 0.00 | 0.00 | 0.00 | 95 | 1009.2 |
| 20260904120133 | 73 | 78 | 0.0 | 3.0 | 0.00 | 0.00 | 0.00 | 95 | 1009.2 |
| 20260904115631 | 73 | 77 | 1.0 | 2.0 | 0.00 | 0.00 | 0.00 | 95 | 1009.2 |
| 20260904115127 | 73 | 77 | 1.0 | 3.0 | 0.00 | 0.00 | 0.00 | 95 | 1009.1 |
| 20260904114629 | 73 | 77 | 0.0 | 3.0 | 0.00 | 0.00 | 0.00 | 95 | 1009.1 |
| 20260904114128 | 73 | 74 | 0.0 | 0.0 | 0.00 | 0.00 | 0.00 | 95 | 1009.0 |
| 20260904113629 | 73 | 74 | 0.0 | 1.0 | 0.00 | 0.00 | 0.00 | 95 | 1009.0 |
| 20260904113126 | 73 | 74 | 1.0 | 2.0 | 0.00 | 0.00 | 0.00 | 95 | 1008.8 |
| 20260904112624 | 73 | 74 | 1.0 | 2.0 | 0.00 | 0.00 | 0.00 | 95 | 1009.0 |
| 20260904112121 | 73 | 76 | 1.0 | 2.0 | 0.00 | 0.00 | 0.00 | 95 | 1008.8 |
| 20260904111621 | 73 | 74 | 1.0 | 2.0 | 0.00 | 0.00 | 0.00 | 95 | 1009.0 |
| 20260904111119 | 73 | 75 | 0.0 | 2.0 | 0.00 | 0.00 | 0.00 | 94 | 1008.8 |
| 20260904110617 | 73 | 75 | 0.0 | 2.0 | 0.00 | 0.00 | 0.00 | 94 | 1008.8 |
| 20260904110118 | 73 | 75 | 1.0 | 3.0 | 0.00 | 0.00 | 0.00 | 94 | 1008.8 |
| 20260904105617 | 73 | 77 | 1.0 | 3.0 | 0.00 | 0.00 | 0.00 | 94 | 1008.7 |
| 20260904105335 | 73 | 76 | 1.0 | 3.0 | 0.00 | 0.00 | 0.00 | 94 | 1008.9 |
| 20260904104611 | 73 | 75 | 1.0 | 3.0 | 0.00 | 0.00 | 0.00 | 94 | 1008.7 |
| 20260904104109 | 73 | 75 | 1.0 | 3.0 | 0.00 | 0.00 | 0.00 | 94 | 1008.8 |
| 20260904103608 | 73 | 82 | 1.0 | 3.0 | 0.00 | 0.00 | 0.00 | 94 | 1008.9 |
| 20260904103108 | 73 | 89 | 0.0 | 3.0 | 0.00 | 0.00 | 0.00 | 94 | 1008.8 |
| 20260904102603 | 73 | 95 | 0.0 | 2.0 | 0.00 | 0.00 | 0.00 | 94 | 1008.9 |
| 20260904102103 | 73 | 98 | 0.0 | 0.0 | 0.00 | 0.00 | 0.00 | 94 | 1008.9 |
| 20260904101600 | 74 | 99 | 0.0 | 0.0 | 0.00 | 0.00 | 0.00 | 94 | 1009.0 |
| 20260904101059 | 74 | 99 | 0.0 | 0.0 | 0.00 | 0.00 | 0.00 | 93 | 1008.9 |
| 20260904100559 | 74 | 99 | 0.0 | 0.0 | 0.00 | 0.00 | 0.00 | 94 | 1008.9 |
| 20260904100112 | 74 | 99 | 0.0 | 0.0 | 0.00 | 0.00 | 0.00 | 93 | 1009.0 |
| 20260904095559 | 74 | 99 | 0.0 | 0.0 | 0.00 | 0.00 | 0.00 | 93 | 1008.9 |
| 20260904095100 | 74 | 99 | 0.0 | 0.0 | 0.00 | 0.00 | 0.00 | 93 | 1008.9 |
| 20260904094559 | 74 | 99 | 0.0 | 0.0 | 0.00 | 0.00 | 0.00 | 93 | 1008.8 |
| 20260904094100 | 74 | 99 | 0.0 | 0.0 | 0.00 | 0.00 | 0.00 | 93 | 1008.8 |
| 20260904093600 | 74 | 99 | 0.0 | 0.0 | 0.00 | 0.00 | 0.00 | 93 | 1008.7 |
| 20260904093059 | 74 | 99 | 0.0 | 0.0 | 0.00 | 0.00 | 0.00 | 93 | 1008.7 |
| 20260904092559 | 74 | 99 | 0.0 | 0.0 | 0.00 | 0.00 | 0.00 | 93 | 1008.6 |
| 20260904091557 | 74 | 100 | 0.0 | 0.0 | 0.00 | 0.00 | 0.00 | 92 | 1008.5 |
| 20260904091057 | 74 | 100 | 0.0 | 1.0 | 0.00 | 0.00 | 0.00 | 92 | 1008.5 |
| 20260904090557 | 74 | 100 | 0.0 | 3.0 | 0.00 | 0.00 | 0.00 | 92 | 1008.4 |
| 20260904090259 | 74 | 100 | 1.0 | 3.0 | 0.00 | 0.00 | 0.00 | 92 | 1008.3 |
| 20260904090209 | 74 | 100 | 1.0 | 3.0 | 0.00 | 0.00 | 0.00 | 92 | 1008.3 |
| 20260904085058 | 74 | 100 | 1.0 | 3.0 | 0.00 | 0.00 | 0.00 | 92 | 1008.4 |
| 20260904084555 | 74 | 101 | 0.0 | 2.0 | 0.00 | 0.00 | 0.00 | 92 | 1008.3 |
| 20260904084056 | 74 | 145 | 0.0 | 0.0 | 0.00 | 0.00 | 0.00 | 91 | 1008.3 |
| 20260904083555 | 75 | 145 | 0.0 | 0.0 | 0.00 | 0.00 | 0.00 | 91 | 1008.2 |
| 20260904083052 | 75 | 145 | 0.0 | 0.0 | 0.00 | 0.00 | 0.00 | 91 | 1008.2 |
| 20260904082549 | 75 | 145 | 0.0 | 0.0 | 0.00 | 0.00 | 0.00 | 91 | 1008.2 |
| 20260904082049 | 75 | 145 | 0.0 | 0.0 | 0.00 | 0.00 | 0.00 | 91 | 1008.2 |
| 20260904081547 | 75 | 145 | 0.0 | 0.0 | 0.00 | 0.00 | 0.00 | 91 | 1008.2 |
| 20260904081047 | 75 | 145 | 0.0 | 0.0 | 0.00 | 0.00 | 0.00 | 91 | 1008.3 |
| 20260904080801 | 75 | 145 | 0.0 | 0.0 | 0.00 | 0.00 | 0.00 | 91 | 1008.2 |
| 20260904080057 | 75 | 145 | 1.0 | 0.0 | 0.00 | 0.00 | 0.00 | 91 | 1008.2 |
| 20260904075007 | 75 | 145 | 2.0 | 4.0 | 0.00 | 0.00 | 0.00 | 91 | 1008.2 |
| 20260904074504 | 75 | 136 | 2.0 | 4.0 | 0.00 | 0.00 | 0.00 | 90 | 1008.2 |
| 20260904074005 | 75 | 140 | 1.0 | 3.0 | 0.00 | 0.00 | 0.00 | 90 | 1008.2 |
| 20260904073503 | 75 | 144 | 1.0 | 3.0 | 0.00 | 0.00 | 0.00 | 90 | 1008.2 |
| 20260904073006 | 75 | 140 | 1.0 | 3.0 | 0.00 | 0.00 | 0.00 | 90 | 1008.2 |
| 20260904072500 | 76 | 141 | 1.0 | 4.0 | 0.00 | 0.00 | 0.00 | 90 | 1008.2 |
| 20260904072000 | 76 | 140 | 2.0 | 4.0 | 0.00 | 0.00 | 0.00 | 90 | 1008.3 |
| 20260904071459 | 76 | 139 | 1.0 | 3.0 | 0.00 | 0.00 | 0.00 | 90 | 1008.2 |
| 20260904071000 | 76 | 136 | 1.0 | 2.0 | 0.00 | 0.00 | 0.00 | 90 | 1008.3 |
| 20260904070457 | 76 | 134 | 1.0 | 3.0 | 0.00 | 0.00 | 0.00 | 90 | 1008.3 |
| 20260904065956 | 76 | 134 | 1.0 | 3.0 | 0.00 | 0.00 | 0.00 | 90 | 1008.3 |
| 20260904065453 | 76 | 130 | 1.0 | 3.0 | 0.00 | 0.00 | 0.00 | 89 | 1008.4 |
| 20260904064952 | 76 | 129 | 0.0 | 2.0 | 0.00 | 0.00 | 0.00 | 89 | 1008.4 |
| 20260904063953 | 76 | 133 | 1.0 | 3.0 | 0.00 | 0.00 | 0.00 | 89 | 1008.4 |
| 20260904063451 | 76 | 131 | 1.0 | 3.0 | 0.00 | 0.00 | 0.00 | 89 | 1008.4 |
| 20260904062950 | 76 | 132 | 1.0 | 3.0 | 0.00 | 0.00 | 0.00 | 89 | 1008.4 |
| 20260904062443 | 76 | 126 | 1.0 | 3.0 | 0.00 | 0.00 | 0.00 | 88 | 1008.4 |
| 20260904061937 | 76 | 131 | 1.0 | 3.0 | 0.00 | 0.00 | 0.00 | 88 | 1008.4 |
| 20260904061434 | 76 | 130 | 1.0 | 3.0 | 0.00 | 0.00 | 0.00 | 88 | 1008.4 |
| 20260904060934 | 76 | 170 | 1.0 | 3.0 | 0.00 | 0.00 | 0.00 | 88 | 1008.4 |
| 20260904060655 | 76 | 170 | 2.0 | 4.0 | 0.00 | 0.00 | 0.00 | 88 | 1008.4 |
| 20260904055932 | 76 | 153 | 1.0 | 4.0 | 0.00 | 0.00 | 0.00 | 88 | 1008.4 |
| 20260904055433 | 77 | 148 | 1.0 | 3.0 | 0.00 | 0.00 | 0.00 | 87 | 1008.3 |
| 20260904054930 | 77 | 148 | 1.0 | 3.0 | 0.00 | 0.00 | 0.00 | 87 | 1008.4 |
| 20260904054921 | 77 | 157 | 2.0 | 4.0 | 0.00 | 0.00 | 0.00 | 87 | 1008.4 |
| 20260904054152 | 77 | 121 | 2.0 | 4.0 | 0.00 | 0.00 | 0.00 | 87 | 1008.4 |
| 20260904053431 | 77 | 153 | 2.0 | 4.0 | 0.00 | 0.00 | 0.00 | 87 | 1008.4 |
| 20260904052931 | 77 | 155 | 2.0 | 4.0 | 0.00 | 0.00 | 0.00 | 87 | 1008.4 |
| 20260904052431 | 77 | 144 | 3.0 | 5.0 | 0.00 | 0.00 | 0.00 | 87 | 1008.4 |
| 20260904051930 | 77 | 101 | 3.0 | 6.0 | 0.00 | 0.00 | 0.00 | 86 | 1008.3 |
| 20260904051657 | 77 | 157 | 2.0 | 6.0 | 0.00 | 0.00 | 0.00 | 86 | 1008.2 |
| 20260904050932 | 77 | 142 | 2.0 | 5.0 | 0.00 | 0.00 | 0.00 | 86 | 1008.3 |
| 20260904050429 | 77 | 122 | 2.0 | 6.0 | 0.00 | 0.00 | 0.00 | 86 | 1008.2 |
| 20260904045922 | 77 | 150 | 3.0 | 6.0 | 0.00 | 0.00 | 0.00 | 86 | 1008.2 |
| 20260904045422 | 77 | 162 | 3.0 | 6.0 | 0.00 | 0.00 | 0.00 | 86 | 1008.2 |
| 20260904044922 | 78 | 153 | 2.0 | 6.0 | 0.00 | 0.00 | 0.00 | 85 | 1008.2 |
| 20260904044423 | 78 | 126 | 2.0 | 5.0 | 0.00 | 0.00 | 0.00 | 85 | 1008.2 |
| 20260904043924 | 78 | 133 | 2.0 | 5.0 | 0.00 | 0.00 | 0.00 | 85 | 1008.2 |
| 20260904043423 | 78 | 132 | 3.0 | 5.0 | 0.00 | 0.00 | 0.00 | 85 | 1008.2 |
| 20260904042923 | 78 | 155 | 3.0 | 5.0 | 0.00 | 0.00 | 0.00 | 85 | 1008.2 |
| 20260904042423 | 78 | 136 | 3.0 | 5.0 | 0.00 | 0.00 | 0.00 | 85 | 1008.2 |
| 20260904041923 | 78 | 151 | 3.0 | 5.0 | 0.00 | 0.00 | 0.00 | 84 | 1008.1 |
| 20260904041422 | 78 | 139 | 3.0 | 6.0 | 0.00 | 0.00 | 0.00 | 84 | 1008.2 |
| 20260904041151 | 78 | 150 | 3.0 | 6.0 | 0.00 | 0.00 | 0.00 | 84 | 1008.1 |
| 20260904040423 | 78 | 111 | 3.0 | 8.0 | 0.00 | 0.00 | 0.00 | 84 | 1008.1 |
| 20260904035922 | 78 | 142 | 3.0 | 8.0 | 0.00 | 0.00 | 0.00 | 84 | 1008.1 |
| 20260904035648 | 78 | 134 | 2.0 | 5.0 | 0.00 | 0.00 | 0.00 | 83 | 1008.1 |
| 20260904034924 | 78 | 157 | 2.0 | 5.0 | 0.00 | 0.00 | 0.00 | 83 | 1008.2 |
| 20260904034423 | 78 | 162 | 3.0 | 5.0 | 0.00 | 0.00 | 0.00 | 83 | 1008.2 |
| 20260904033921 | 78 | 161 | 3.0 | 7.0 | 0.00 | 0.00 | 0.00 | 83 | 1008.2 |
| 20260904033420 | 78 | 172 | 3.0 | 9.0 | 0.00 | 0.00 | 0.00 | 83 | 1008.2 |
| 20260904032921 | 79 | 150 | 3.0 | 9.0 | 0.00 | 0.00 | 0.00 | 83 | 1008.2 |
| 20260904032420 | 79 | 155 | 3.0 | 7.0 | 0.00 | 0.00 | 0.00 | 82 | 1008.1 |
| 20260904032411 | 79 | 126 | 3.0 | 7.0 | 0.00 | 0.00 | 0.00 | 82 | 1008.1 |
| 20260904031417 | 79 | 161 | 3.0 | 7.0 | 0.00 | 0.00 | 0.00 | 82 | 1008.2 |
| 20260904030917 | 79 | 153 | 2.0 | 7.0 | 0.00 | 0.00 | 0.00 | 81 | 1008.2 |
| 20260904030641 | 79 | 166 | 2.0 | 7.0 | 0.00 | 0.00 | 0.00 | 81 | 1008.2 |
| 20260904030403 | 79 | 127 | 1.0 | 4.0 | 0.00 | 0.00 | 0.00 | 81 | 1008.2 |
| 20260904025643 | 79 | 131 | 2.0 | 4.0 | 0.00 | 0.00 | 0.00 | 80 | 1008.3 |
| 20260904024915 | 79 | 151 | 1.0 | 6.0 | 0.00 | 0.00 | 0.00 | 80 | 1008.3 |
| 20260904024414 | 79 | 69 | 2.0 | 6.0 | 0.00 | 0.00 | 0.00 | 80 | 1008.3 |
| 20260904023914 | 80 | 90 | 2.0 | 7.0 | 0.00 | 0.00 | 0.00 | 79 | 1008.3 |
| 20260904023414 | 80 | 85 | 2.0 | 7.0 | 0.00 | 0.00 | 0.00 | 79 | 1008.3 |
| 20260904022917 | 80 | 126 | 2.0 | 3.0 | 0.00 | 0.00 | 0.00 | 79 | 1008.2 |
| 20260904022412 | 80 | 92 | 2.0 | 5.0 | 0.00 | 0.00 | 0.00 | 78 | 1008.2 |
| 20260904021911 | 80 | 94 | 1.0 | 5.0 | 0.00 | 0.00 | 0.00 | 78 | 1008.3 |
| 20260904021622 | 80 | 145 | 1.0 | 4.0 | 0.00 | 0.00 | 0.00 | 77 | 1008.2 |
| 20260904021128 | 80 | 188 | 1.0 | 4.0 | 0.00 | 0.00 | 0.00 | 77 | 1008.3 |
| 20260904020358 | 80 | 124 | 1.0 | 4.0 | 0.00 | 0.00 | 0.00 | 77 | 1008.2 |
| 20260904015900 | 81 | 133 | 1.0 | 4.0 | 0.00 | 0.00 | 0.00 | 76 | 1008.2 |
| 20260904015359 | 81 | 150 | 1.0 | 4.0 | 0.00 | 0.00 | 0.00 | 76 | 1008.3 |
| 20260904014858 | 81 | 74 | 1.0 | 5.0 | 0.00 | 0.00 | 0.00 | 76 | 1008.3 |
| 20260904014358 | 81 | 74 | 1.0 | 6.0 | 0.00 | 0.00 | 0.00 | 75 | 1008.3 |
| 20260904013858 | 81 | 74 | 1.0 | 6.0 | 0.00 | 0.00 | 0.00 | 75 | 1008.2 |
| 20260904013356 | 81 | 119 | 1.0 | 5.0 | 0.00 | 0.00 | 0.00 | 74 | 1008.0 |
| 20260904013122 | 81 | 164 | 2.0 | 5.0 | 0.00 | 0.00 | 0.00 | 74 | 1007.9 |
| 20260904012354 | 82 | 138 | 2.0 | 5.0 | 0.00 | 0.00 | 0.00 | 74 | 1007.8 |
| 20260904012111 | 82 | 150 | 3.0 | 7.0 | 0.00 | 0.00 | 0.00 | 73 | 1007.8 |
| 20260904011352 | 82 | 154 | 2.0 | 7.0 | 0.00 | 0.00 | 0.00 | 72 | 1007.7 |
| 20260904010852 | 82 | 165 | 2.0 | 7.0 | 0.00 | 0.00 | 0.00 | 72 | 1007.6 |
| 20260904010350 | 82 | 152 | 3.0 | 12.0 | 0.00 | 0.00 | 0.00 | 71 | 1007.7 |
| 20260904005851 | 83 | 159 | 4.0 | 12.0 | 0.00 | 0.00 | 0.00 | 71 | 1007.6 |
| 20260904005351 | 83 | 135 | 3.0 | 7.0 | 0.00 | 0.00 | 0.00 | 71 | 1007.6 |
| 20260904004851 | 83 | 153 | 3.0 | 7.0 | 0.00 | 0.00 | 0.00 | 70 | 1007.6 |
| 20260904004617 | 83 | 161 | 3.0 | 8.0 | 0.00 | 0.00 | 0.00 | 69 | 1007.5 |
| 20260904003852 | 84 | 149 | 3.0 | 9.0 | 0.00 | 0.00 | 0.00 | 69 | 1007.6 |
| 20260904003608 | 84 | 135 | 4.0 | 9.0 | 0.00 | 0.00 | 0.00 | 68 | 1007.6 |
| 20260904002849 | 84 | 142 | 3.0 | 8.0 | 0.00 | 0.00 | 0.00 | 68 | 1007.6 |
| 20260904002611 | 84 | 121 | 3.0 | 8.0 | 0.00 | 0.00 | 0.00 | 67 | 1007.6 |
| 20260904001850 | 85 | 152 | 3.0 | 8.0 | 0.00 | 0.00 | 0.00 | 67 | 1007.7 |
| 20260904001349 | 85 | 144 | 2.0 | 5.0 | 0.00 | 0.00 | 0.00 | 66 | 1007.7 |
| 20260904000846 | 85 | 151 | 2.0 | 10.0 | 0.00 | 0.00 | 0.00 | 66 | 1007.7 |
| 20260904000348 | 85 | 144 | 3.0 | 10.0 | 0.00 | 0.00 | 0.00 | 66 | 1007.7 |
| 20260904000115 | 85 | 150 | 3.0 | 11.0 | 0.00 | 0.00 | 0.00 | 66 | 1007.7 |
| 20260903235346 | 85 | 158 | 3.0 | 11.0 | 0.00 | 0.00 | 0.00 | 65 | 1007.7 |
| 20260903234847 | 86 | 148 | 3.0 | 10.0 | 0.00 | 0.00 | 0.00 | 65 | 1007.7 |
| 20260903234341 | 86 | 115 | 4.0 | 11.0 | 0.00 | 0.00 | 0.00 | 64 | 1007.6 |
| 20260903233836 | 86 | 113 | 4.0 | 11.0 | 0.00 | 0.00 | 0.00 | 64 | 1007.7 |
| 20260903233335 | 86 | 194 | 4.0 | 11.0 | 0.00 | 0.00 | 0.00 | 64 | 1007.5 |
| 20260903233059 | 86 | 174 | 5.0 | 12.0 | 0.00 | 0.00 | 0.00 | 64 | 1007.4 |